Location: Marsån
(66.4167°N, 22.2833°E)
Time: 11:46:52
(UTC+00:00)

Cosmos 2151 - Pass Details

Date: 24 February 2024
Orbit: 572 x 589 km, 82.5° (Epoch: 15 April)

Event Time Altitude Azimuth Distance (km) Brightness Sun altitude
Rises 16:51:18 0° 149° (SSE) 2,781 6.1 -9.4°
Reaches altitude 10° 16:53:51 10° 134° (SE) 1,888 5.1 -9.6°
Maximum altitude 16:57:01 21° 84° (E) 1,305 4.1 -10.0°
Drops below altitude 10° 17:00:12 10° 34° (NE) 1,901 5.2 -10.3°
Sets 17:02:47 0° 19° (NNE) 2,807 6.2 -10.5°
